Flag for Denmark Weather past 2 weeks in Roskilde, Denmark

Now
64 °F

Mild.


Feels Like: 64 °F
Forecast: 55 / 69 °F
Wind: 17 mph from East

Location: Koebenhavn / Roskilde

Current Time: Sep 18, 2014 at 12:05:37 PM

Latest Report: Sep 18, 2014 at 11:20 AM


Visibility: N/A

Pressure: 30.09 "Hg

Humidity: 78%

Dew point: 57 °F

Location of RoskildeLocation

Historic Weather in Roskilde — Graph

°F

Roskilde temperature yesterday

Maximum temperature yesterday: 66 °F (at 12:20 PM)
Minimum temperature yesterday: 54 °F (at 2:20 AM)
Average temperature yesterday: 59 °F

Past Weeks' High & Low Weather Summary

 TemperatureHumidityPressure
High68 °F (Sep 5, 1:50 PM)100% (Sep 4, 2:50 AM)30.42 "Hg (Sep 4, 2:50 AM)
Low48 °F (Sep 12, 3:50 AM)52% (Sep 3, 1:50 PM)29.86 "Hg (Sep 9, 6:20 AM)
Average60 °F87%30.12 "Hg
* Reported Sep 3 10:20 AM — Sep 18 10:50 AM, Roskilde, Weather by CustomWeather, © 2014

Note: Actual official high and low records may vary slightly from our data, if they occured in-between our weather recording intervals... More about our weather records

Advertising

Roskilde weather history for previous 24 hours

 ConditionsComfort  
Time TempWeatherWind HumidityBarometerVisibility
10:50 AM
Sep 18
64 °FMild.15 mph78%30.09 "HgN/A
10:20 AM63 °FMild.15 mph83%30.09 "HgN/A
9:50 AM61 °FCool.15 mph88%30.09 "HgN/A
9:20 AM61 °FCool.13 mph88%30.09 "HgN/A
8:50 AM59 °FCool.10 mph94%30.07 "HgN/A
8:20 AM59 °FCool.10 mph88%30.07 "HgN/A
7:50 AM57 °FCool.12 mph94%30.07 "HgN/A
7:20 AM57 °FCool.13 mph94%30.07 "HgN/A
6:50 AM57 °FCool.12 mph94%30.07 "HgN/A
6:20 AM55 °FCool.9 mph100%30.07 "HgN/A
5:50 AM57 °FCool.10 mph94%30.07 "HgN/A
5:20 AM55 °FCool.8 mph94%30.07 "HgN/A
4:50 AM55 °FCool.7 mph100%30.07 "HgN/A
4:20 AM55 °FCool.7 mph100%30.09 "HgN/A
3:50 AM55 °FCool.7 mph94%30.09 "HgN/A
3:20 AM55 °FCool.6 mph94%30.09 "HgN/A
2:50 AM57 °FCool.8 mph88%30.09 "HgN/A
2:20 AM57 °FCool.8 mph94%30.09 "HgN/A
1:50 AM57 °FCool.9 mph94%30.09 "HgN/A
1:20 AM57 °FCool.7 mph88%30.09 "HgN/A
12:50 AM57 °FCool.7 mph94%30.09 "HgN/A
12:20 AM57 °FCool.8 mph94%30.09 "HgN/A
11:50 PM
Sep 17
57 °FCool.8 mph88%30.12 "HgN/A
11:20 PM57 °FCool.8 mph94%30.12 "HgN/A
10:50 PM57 °FCool.9 mph88%30.12 "HgN/A
10:20 PM57 °FCool.8 mph88%30.12 "HgN/A
9:50 PM57 °FCool.9 mph88%30.12 "HgN/A
9:20 PM57 °FCool.9 mph88%30.12 "HgN/A
8:50 PM59 °FCool.7 mph77%30.12 "HgN/A
8:20 PM59 °FCool.7 mph77%30.12 "HgN/A
7:50 PM59 °FCool.8 mph77%30.12 "HgN/A
7:20 PM59 °FCool.8 mph82%30.12 "HgN/A
6:50 PM61 °FCool.9 mph77%30.12 "HgN/A
6:20 PM63 °FMild.10 mph73%30.12 "HgN/A
5:50 PM63 °FMild.10 mph73%30.12 "HgN/A
5:20 PM64 °FMild.12 mph73%30.12 "HgN/A
4:50 PM64 °FMild.12 mph73%30.12 "HgN/A
4:20 PM64 °FMild.14 mph68%30.15 "HgN/A
3:50 PM64 °FMild.16 mph68%30.15 "HgN/A
3:20 PM64 °FMild.17 mph68%30.15 "HgN/A
2:50 PM66 °FMild.16 mph68%30.15 "HgN/A
2:20 PM64 °FMild.17 mph68%30.15 "HgN/A
1:50 PM66 °FMild.17 mph64%30.15 "HgN/A
1:20 PM66 °FMild.16 mph64%30.15 "HgN/A
12:50 PM66 °FMild.16 mph64%30.15 "HgN/A
12:20 PM66 °FMild.14 mph78%30.18 "HgN/A
Weather by CustomWeather, © 2014

See weather overviewHow to use our weather pages